Flag for Canada Weather past 2 weeks in Winnipeg, Manitoba, Canada

Now
47 °F

Cool.


Feels Like: 45 °F
Forecast: 36 / 59 °F
Wind: 5 mph from East

Location: Winnipeg The Forks

Current Time: Apr 25, 2015 at 11:07:19 AM

Latest Report: Apr 25, 2015 at 10:00 AM


Visibility: N/A

Pressure: 29.96 "Hg

Humidity: 48%

Dew point: 28 °F

Location of WinnipegLocation

Historic Weather in Winnipeg — Graph

°F

Winnipeg temperature yesterday

Maximum temperature yesterday: 55 °F (at 4:00 PM)
Minimum temperature yesterday: 36 °F (at 6:00 AM)
Average temperature yesterday: 44 °F

Past Weeks' High & Low Weather Summary

 TemperatureHumidityPressure
High76 °F (Apr 15, 6:00 PM)93% (Apr 19, 10:00 AM)30.22 "Hg (Apr 19, 10:00 AM)
Low23 °F (Apr 23, 7:00 AM)14% (Apr 13, 1:00 PM)29.39 "Hg (Apr 12, 5:00 AM)
Average46 °F46%29.89 "Hg
* Reported Apr 10 9:00 AM — Apr 25 9:00 AM, Winnipeg, Weather by CustomWeather, © 2015

Note: Actual official high and low records may vary slightly from our data, if they occured in-between our weather recording intervals... More about our weather records

Advertising

Winnipeg weather history for previous 24 hours

 ConditionsComfort  
Time TempWeatherWind HumidityBarometerVisibility
9:00 AM
Sat, Apr 25
43 °FQuite cool.5 mph55%29.97 "HgN/A
8:00 AM40 °FChilly.2 mph64%29.96 "HgN/A
7:00 AM36 °FChilly.1 mph74%29.94 "HgN/A
6:00 AM36 °FChilly.2 mph74%29.93 "HgN/A
5:00 AM36 °FChilly.3 mph73%29.91 "HgN/A
4:00 AM34 °FChilly.2 mph79%29.91 "HgN/A
3:00 AM36 °FChilly.2 mph77%29.91 "HgN/A
2:00 AM37 °FChilly.2 mph74%29.90 "HgN/A
1:00 AM38 °FChilly.1 mph71%29.91 "HgN/A
12:00 AM40 °FChilly.2 mph67%29.90 "HgN/A
11:00 PM
Fri, Apr 24
40 °FQuite cool.6 mph69%29.89 "HgN/A
10:00 PM44 °FQuite cool.6 mph66%29.90 "HgN/A
9:00 PM45 °FCool.8 mph53%29.88 "HgN/A
8:00 PM49 °FCool.7 mph45%29.85 "HgN/A
6:00 PM54 °FCool.6 mph40%29.82 "HgN/A
5:00 PM55 °FCool.7 mph37%29.80 "HgN/A
4:00 PM55 °FRefreshingly cool.6 mph37%29.81 "HgN/A
3:00 PM54 °FCool.6 mph38%29.81 "HgN/A
2:00 PM53 °FCool.7 mph37%29.83 "HgN/A
1:00 PM51 °FCool.5 mph39%29.85 "HgN/A
12:00 PM50 °FCool.6 mph39%29.86 "HgN/A
11:00 AM48 °FCool.6 mph35%29.87 "HgN/A
Weather by CustomWeather, © 2015

See weather overviewHow to use our weather pages